User: anonymous   Login
Location: Les Jeannots
(43.2262°N, 5.5774°E)
Time: 22:04:59
(UTC+00:00)
Language:

Lacrosse 5 rocket - Orbit

View from above orbital plane
View from above orbital plane
View from above satellite
View from above satellite

Ground track
Ground track

The orbit data is extracted from the following two-line orbital elements,

1 28647U 05016B   20271.50799781 +.00000395 +00000-0 +41070-4 0  9990
2 28647 056.9974 185.4254 0122423 329.6708 029.7283 15.06074455075333
Epoch (UTC): 27 September 2020 12:11:31
Eccentricity: 0.0122423
inclination: 56.9974°
perigee height: 463 km
apogee height: 633 km
right ascension of ascending node: 185.4254°
argument of perigee: 329.6708°
revolutions per day: 15.06074455
mean anomaly at epoch: 29.7283°
orbit number at epoch: 7533

The dashed part of the orbit path shows where the satellite is in the earth's shadow,  

DLR